[[{"header":{"parameterUnit":"m.s-1","parameterCategory":1,"la1":30.2991,"la2":30.254,"lo1":-89.0895,"lo2":-89.0444,"dy":0.0017,"dx":0.0017,"nx":28,"ny":28,"refTime":"2024-04-09T03:00:00:Z","depth":0,"parameterNumber":2,"parameterNumberName":"U-component_of_WINDS"},"data":[0,0,0,0,0,0,0,0,0,0,0,0,0,0,0,0,0,0,0,0,0,0,0,0,0,0,0,0,0,0,0,0,0,0,0,0,0,0,0,0,0,0,0,0,0,0,0,0,0,0,0,0,0,0,0,0,0,0,-7.3096,-7.3097,0,-7.3214,-7.3216,-7.3217,-7.3181,-7.3178,-7.3176,-7.3173,-7.3289,-7.3294,-7.3299,0,0,0,0,0,0,0,0,0,0,0,0,0,-7.2834,-7.2839,-7.3096,-7.3097,-7.3099,-7.3214,-7.3216,-7.3217,-7.3181,-7.3178,-7.3175,-7.3172,-7.3287,-7.3293,-7.33,0,0,0,0,0,0,0,0,0,0,0,0,0,-7.2949,-7.284,-7.3096,-7.3095,-7.3096,-7.3214,-7.3216,-7.3218,-7.3182,-7.3178,-7.3174,-7.3171,-7.3285,-7.3292,-7.33,-7.3425,0,0,-7.3325,-7.3329,0,0,0,0,0,0,0,0,-7.2943,-7.2959,-7.3093,-7.3095,-7.3096,-7.3179,-7.3166,-7.3287,-7.3183,-7.3149,-7.3173,-7.3169,-7.3255,-7.3265,-7.3295,-7.343,-7.3435,-7.3326,-7.3331,-7.3334,-7.3336,0,0,0,0,0,0,0,-7.2935,-7.2954,-7.3142,-7.3095,-7.3097,-7.3087,-7.3099,-7.3188,-7.3221,-7.3151,-7.3149,-7.3164,-7.3255,-7.3287,-7.3298,-7.3437,-7.3326,-7.3333,-7.3338,-7.3341,-7.3679,-7.3683,0,0,0,0,0,0,-7.2926,-7.2947,-7.3139,-7.3146,-7.3009,-7.3095,-7.3108,-7.3156,-7.322,-7.3226,-7.3167,-7.3162,-7.3276,-7.3288,-7.3301,-7.345,-7.3334,-7.3342,-7.3346,-7.3675,-7.368,-7.3684,0,0,0,0,0,0,-7.2921,-7.2944,-7.3134,-7.3046,-7.307,-7.3103,-7.3157,-7.316,-7.3193,-7.3232,-7.3237,-7.3195,-7.3273,-7.329,-7.3395,-7.3453,-7.3345,-7.3353,-7.367,-7.3676,-7.3682,-7.3748,0,0,0,0,0,0,-7.2914,-7.2942,-7.299,-7.3048,-7.3074,-7.3226,-7.3161,-7.3165,-7.3208,-7.3202,-7.3259,-7.3265,-7.3272,-7.3383,-7.3403,-7.3462,-7.3359,-7.3665,-7.3673,-7.368,-7.374,-7.3755,-7.3768,0,0,0,0,0,-7.2904,-7.3003,-7.2993,-7.3016,-7.3136,-7.323,-7.3245,-7.3252,-7.3213,-7.3261,-7.3286,-7.3263,-7.3445,-7.3394,-7.3416,-7.3479,-7.3661,-7.367,-7.3679,-7.3734,-7.3752,-7.3768,0,0,0,0,0,0,-7.2949,-7.301,-7.3,-7.312,-7.3171,-7.3223,-7.3284,-7.3272,-7.3332,-7.3324,-7.3329,-7.3342,-7.3449,-7.3475,-7.3417,-7.3602,-7.3547,-7.3561,-7.358,-7.3598,-7.3612,-7.3601,-7.3366,0,0,0,0,0,-7.2973,-7.3046,-7.3096,-7.3197,-7.3223,-7.325,-7.3291,-7.3293,-7.3344,-7.3364,-7.3397,-7.3446,-7.3514,-7.3558,-7.3623,-7.3746,-7.3756,-7.38,-7.3814,-7.3825,-7.3836,-7.3901,-7.392,-7.3715,-7.3715,-7.3715,0,0,-7.3023,-7.3066,-7.3111,-7.3207,-7.3246,-7.3319,-7.3267,-7.3347,-7.3401,-7.3376,-7.3476,-7.3502,-7.3558,-7.3671,-7.3723,-7.3696,-7.3896,-7.3837,-7.3846,-7.385,-7.3913,-7.3932,-7.3949,-7.3721,-7.372,-7.3719,0,0,-7.315,-7.3192,-7.328,-7.3321,-7.3382,-7.34,-7.3421,-7.3478,-7.3494,-7.3596,-7.3578,-7.3643,-7.376,-7.38,-7.3836,-7.3983,-7.3963,-7.4004,-7.4074,-7.4138,-7.4154,-7.4169,-7.4218,-7.4236,-7.4015,-7.4016,-7.4016,0,-7.3203,-7.3315,-7.3326,-7.3409,-7.3451,-7.3435,-7.3523,-7.3562,-7.364,-7.3669,-7.3639,-7.3787,-7.3823,-7.3945,-7.3981,-7.4012,-7.4034,-7.3995,-7.4152,-7.4166,-7.4179,-7.4227,-7.4246,-7.402,-7.4019,-7.4019,-7.4018,0,-7.3377,-7.3455,-7.3519,-7.3597,-7.3647,-7.3732,-7.3754,-7.3804,-7.3803,-7.3823,-7.3927,-7.3971,-7.4044,-7.4074,-7.4073,-7.4196,-7.4177,-7.415,-7.4093,-7.4203,-7.4247,-7.4266,-7.4026,-7.4024,-7.4023,-7.4022,0,0,-7.353,-7.3617,-7.364,-7.3675,-7.3743,-7.3802,-7.3887,-7.3961,-7.4002,-7.4058,-7.4127,-7.4229,-7.4204,-7.4245,-7.4249,-7.4305,-7.4416,-7.4271,-7.4272,-7.4293,-7.4552,-7.4569,-7.459,-7.4406,-7.4409,-7.4412,-7.4547,0,-7.3661,-7.3811,-7.3825,-7.3958,-7.403,-7.4017,-7.4091,-7.4139,-7.4162,-7.4225,-7.4249,-7.432,-7.4284,-7.4308,-7.4364,-7.4391,-7.4467,-7.4382,-7.4467,-7.447,-7.4449,-7.4614,-7.4632,-7.4757,-7.4564,-7.4567,-7.4569,0,-7.3832,-7.3895,-7.4037,-7.4095,-7.4126,-7.4192,-7.426,-7.4322,-7.4377,-7.439,-7.4437,-7.4434,-7.4519,-7.4464,-7.4581,-7.4522,-7.4559,-7.4578,-7.4583,-7.4587,-7.4523,-7.4619,-7.4797,-7.4814,-7.4597,-7.4595,-7.4593,0,-7.3926,-7.4047,-7.4147,-7.4178,-7.425,-7.4296,-7.4328,-7.438,-7.4424,-7.4484,-7.4512,-7.4582,-7.4619,-7.4672,-7.4687,-7.4646,-7.4803,-7.4749,-7.4813,-7.4813,-7.4842,-7.4839,-7.5024,-7.4874,-7.4873,-7.4873,-7.4873,0,-7.4068,-7.4154,-7.419,-7.4251,-7.4347,-7.4363,-7.4457,-7.4486,-7.4533,-7.4598,-7.4593,-7.4654,-7.4672,-7.4736,-7.4749,-7.4843,-7.486,-7.4871,-7.4872,-7.4869,-7.4867,-7.4889,-7.4879,-7.4878,-7.4877,-7.4876,-7.4875,0,-7.4187,-7.4215,-7.4323,-7.4383,-7.4401,-7.4468,-7.4519,-7.4577,-7.4601,-7.4683,-7.4704,-7.474,-7.4815,-7.4837,-7.4927,-7.4936,-7.5045,-7.504,-7.5026,-7.5025,-7.5086,-7.5079,-7.5288,-7.5315,-7.515,-7.5152,-7.5153,0,-7.4273,-7.434,-7.4408,-7.4453,-7.4487,-7.4559,-7.4604,-7.4623,-7.467,-7.474,-7.4789,-7.4865,-7.4925,-7.5046,-7.5079,-7.5148,-7.5143,-7.5212,-7.5152,-7.5147,-7.5139,-7.5133,-7.5139,-7.5221,-7.5222,-7.5224,-7.5225,0,-7.4423,-7.4434,-7.4501,-7.4573,-7.4628,-7.4686,-7.4741,-7.4777,-7.4804,-7.4857,-7.4936,-7.4983,-7.5077,-7.515,-7.5221,-7.5252,-7.5242,-7.5245,-7.5262,-7.5257,-7.5244,-7.5248,-7.5052,-7.5238,-7.5237,-7.5236,-7.5235,-7.5235,-7.4526,-7.4584,-7.4641,-7.4716,-7.476,-7.4813,-7.487,-7.4902,-7.4968,-7.5047,-7.5054,-7.5138,-7.5193,-7.5287,-7.5322,-7.5387,-7.5367,-7.5393,-7.5399,-7.5404,-7.5408,-7.5239,-7.5401,-7.54,-7.54,-7.54,-7.54,0,-7.4672,-7.4709,-7.4778,-7.4856,-7.4915,-7.4906,-7.4967,-7.5015,-7.509,-7.5143,-7.5204,-7.5293,-7.5366,-7.5406,-7.5478,-7.5522,-7.552,-7.554,-7.5534,-7.5541,-7.5424,-7.5399,-7.5541,-7.5541,-7.5541,-7.5541,-7.5541,-7.5541,-7.4754,-7.4851,-7.487,-7.4989,-7.5026,-7.5109,-7.5145,-7.5192,-7.5235,-7.5336,-7.5397,-7.5424,-7.5471,-7.5547,-7.5613,-7.5623,-7.5647,-7.567,-7.5677,-7.5565,-7.555,-7.5536,-7.5513,-7.5676,-7.5676,-7.5789,-7.579,-7.5791]},{"header":{"parameterUnit":"m.s-1","parameterCategory":1,"la1":30.2991,"la2":30.254,"lo1":-89.0895,"lo2":-89.0444,"dy":0.0017,"dx":0.0017,"nx":28,"ny":28,"refTime":"2024-04-09T03:00:00:Z","depth":0,"parameterNumber":3,"parameterNumberName":"V-component_of_WINDS"},"data":[0,0,0,0,0,0,0,0,0,0,0,0,0,0,0,0,0,0,0,0,0,0,0,0,0,0,0,0,0,0,0,0,0,0,0,0,0,0,0,0,0,0,0,0,0,0,0,0,0,0,0,0,0,0,0,0,0,0,3.6328,3.6327,0,3.6237,3.6236,3.6235,3.6167,3.6167,3.6166,3.6165,3.607,3.6068,3.6067,0,0,0,0,0,0,0,0,0,0,0,0,0,3.6441,3.644,3.6328,3.6327,3.6326,3.6237,3.6236,3.6235,3.6167,3.6167,3.6166,3.6165,3.6071,3.6069,3.6066,0,0,0,0,0,0,0,0,0,0,0,0,0,3.6376,3.6439,3.6328,3.6281,3.6276,3.6238,3.6236,3.6235,3.6167,3.6167,3.6166,3.6165,3.6072,3.6069,3.6066,3.6066,0,0,3.6057,3.6056,0,0,0,0,0,0,0,0,3.6379,3.6371,3.6289,3.6284,3.6279,3.6213,3.6241,3.6178,3.6168,3.6209,3.6165,3.6164,3.6118,3.6111,3.6096,3.6062,3.6058,3.6057,3.6055,3.6054,3.6053,0,0,0,0,0,0,0,3.6384,3.6375,3.6292,3.6288,3.6282,3.6265,3.6254,3.6229,3.617,3.6205,3.62,3.619,3.6115,3.6099,3.6094,3.6056,3.6057,3.6054,3.6052,3.6051,3.6019,3.6019,0,0,0,0,0,0,3.6396,3.6379,3.6295,3.6289,3.6328,3.6263,3.6252,3.6235,3.617,3.6159,3.6191,3.6187,3.6105,3.6097,3.609,3.6087,3.6054,3.6051,3.6049,3.6018,3.6019,3.602,0,0,0,0,0,0,3.6399,3.6389,3.6298,3.6333,3.632,3.6262,3.6244,3.6233,3.6217,3.6159,3.6148,3.6186,3.6104,3.6094,3.6073,3.6082,3.605,3.6047,3.6017,3.6018,3.6019,3.6079,0,0,0,0,0,0,3.6402,3.6391,3.639,3.6333,3.6318,3.6283,3.6244,3.6232,3.6213,3.6207,3.6151,3.6141,3.6102,3.6078,3.607,3.6078,3.6045,3.6016,3.6017,3.6019,3.6076,3.6083,3.6088,0,0,0,0,0,3.6407,3.641,3.639,3.638,3.6317,3.6284,3.6275,3.6231,3.6214,3.6213,3.6176,3.6143,3.6083,3.6076,3.6067,3.6074,3.6015,3.6017,3.6019,3.6074,3.6081,3.6088,0,0,0,0,0,0,3.6467,3.6401,3.6379,3.6364,3.633,3.6272,3.6269,3.624,3.621,3.6206,3.6152,3.614,3.6125,3.6097,3.6091,3.6071,3.6045,3.6045,3.609,3.6097,3.6102,3.6109,3.6042,0,0,0,0,0,3.6479,3.6459,3.6402,3.6394,3.6378,3.6327,3.6311,3.6281,3.6243,3.6228,3.6189,3.6154,3.6127,3.611,3.6082,3.6073,3.606,3.6073,3.6079,3.6084,3.6084,3.6078,3.6084,3.6026,3.6026,3.6026,0,0,3.6503,3.6464,3.6454,3.6405,3.6375,3.6355,3.6315,3.6295,3.628,3.6225,3.6203,3.6174,3.6131,3.6116,3.6107,3.6092,3.6098,3.6086,3.6091,3.6088,3.6081,3.6086,3.6091,3.6028,3.6028,3.6027,0,0,3.6536,3.6505,3.6495,3.6467,3.6423,3.6389,3.6388,3.6335,3.6313,3.6291,3.625,3.6231,3.6185,3.6157,3.6136,3.6162,3.6131,3.6154,3.6184,3.6179,3.6184,3.6187,3.6197,3.6201,3.6155,3.6155,3.6156,0,3.657,3.6539,3.6493,3.6477,3.6457,3.6408,3.6398,3.6372,3.6322,3.6309,3.6293,3.6237,3.6204,3.6183,3.6189,3.6174,3.617,3.616,3.6187,3.619,3.6193,3.6201,3.6205,3.6159,3.6158,3.6158,3.6158,0,3.6584,3.6563,3.656,3.6514,3.6494,3.6481,3.6434,3.6419,3.6391,3.6359,3.6338,3.6297,3.6261,3.6254,3.6225,3.6229,3.6221,3.6197,3.6169,3.6202,3.6209,3.6212,3.6163,3.6162,3.6161,3.616,0,0,3.665,3.6581,3.6581,3.656,3.6509,3.6492,3.6477,3.6443,3.6431,3.6399,3.6385,3.6349,3.6328,3.6305,3.6273,3.6269,3.6292,3.6245,3.6243,3.6255,3.6294,3.6312,3.6316,3.6272,3.6273,3.6273,3.6298,0,3.6675,3.6646,3.6606,3.659,3.6571,3.6525,3.6513,3.6481,3.6451,3.643,3.6398,3.6373,3.6346,3.6332,3.6326,3.6291,3.6299,3.6289,3.6259,3.6258,3.627,3.632,3.6338,3.6363,3.63,3.63,3.6301,0,3.6699,3.6671,3.6653,3.6606,3.6596,3.6586,3.6552,3.6533,3.6496,3.6475,3.6451,3.6417,3.64,3.6376,3.6351,3.6345,3.6331,3.6312,3.6312,3.6307,3.6281,3.6315,3.637,3.6374,3.6304,3.6304,3.6304,0,3.675,3.6707,3.6691,3.6675,3.6619,3.6613,3.6589,3.6551,3.6534,3.6505,3.6493,3.6462,3.6445,3.6422,3.6381,3.6367,3.6361,3.6334,3.6343,3.6344,3.6343,3.6343,3.6395,3.6335,3.6335,3.6335,3.6335,0,3.6781,3.6772,3.6713,3.6704,3.6693,3.6648,3.6639,3.6611,3.6578,3.6563,3.6522,3.6508,3.6455,3.6435,3.6404,3.6389,3.6381,3.6364,3.6355,3.6367,3.6369,3.6356,3.6353,3.6336,3.6336,3.6335,3.6335,0,3.6835,3.6795,3.6775,3.6725,3.6712,3.6707,3.6664,3.6653,3.6622,3.6603,3.6596,3.6548,3.6523,3.648,3.6442,3.6421,3.6412,3.6398,3.6425,3.642,3.6432,3.6431,3.6476,3.648,3.6418,3.6419,3.642,0,3.6857,3.685,3.68,3.6787,3.6765,3.6745,3.6727,3.6683,3.6667,3.6626,3.662,3.6592,3.6567,3.6529,3.649,3.6462,3.6446,3.6464,3.6441,3.6454,3.6446,3.6447,3.6447,3.6469,3.647,3.6471,3.6471,0,3.6901,3.6883,3.6859,3.683,3.6811,3.6785,3.6758,3.6749,3.6699,3.6683,3.6657,3.6638,3.6601,3.6574,3.654,3.6515,3.6485,3.6479,3.648,3.6491,3.6507,3.6499,3.6439,3.6478,3.6477,3.6477,3.6477,3.6476,3.694,3.6932,3.6896,3.6872,3.6847,3.6822,3.681,3.6779,3.6757,3.6724,3.6699,3.6676,3.664,3.6592,3.657,3.6551,3.6537,3.6538,3.6538,3.6539,3.6544,3.6512,3.6545,3.6544,3.6544,3.6544,3.6544,0,3.6982,3.6957,3.6936,3.6899,3.6881,3.6856,3.6824,3.681,3.679,3.676,3.6737,3.6709,3.6683,3.6643,3.6614,3.6607,3.6592,3.6601,3.66,3.6595,3.6557,3.656,3.6613,3.6613,3.6613,3.6613,3.6613,3.6613,3.7002,3.6987,3.6964,3.6937,3.6912,3.6889,3.6874,3.6851,3.6827,3.6798,3.6776,3.6751,3.6717,3.6686,3.6662,3.6651,3.6642,3.6654,3.6639,3.6604,3.6598,3.6592,3.6594,3.6653,3.6653,3.6679,3.6679,3.6679]}]]